Regional Weather Roundup
Issued by NWS State College, PA

Home | Current Version | Previous Version | Graphics & Text | Print | Product List | Glossary On
Versions: 1 2 3 4 5 6 7 8 9 10 11 12 13 14 15 16 17 18 19 20 21 22 23 24 25 26 27 28 29 30 31 32 33 34 35 36 37 38 39 40 41 42 43 44 45 46 47 48 49 50
000
ASUS41 KCTP 251310
RWRCTP

REGIONAL WEATHER ROUNDUP
NATIONAL WEATHER SERVICE STATE COLLEGE PA
900 AM EDT WED APR 25 2018

Note: "fair" indicates few or no clouds below 12,000 feet with no
significant weather and/or obstructions to visibility.

* = STATION THAT DOES NOT REPORT PRECIPITATION /E.G. RAIN...SNOW...ETC/
    THUNDER OR FOG.

PAZ002>004-007>009-013>016-020>023-029>032-251400-
WESTERN PENNSYLVANIA

CITY           SKY/WX    TMP DP  RH WIND       PRES   REMARKS
ERIE           CLOUDY    50  48  93 NE6       29.86S FOG
MEADVILLE      CLOUDY    49  49 100 SE3       29.84F FOG
FRANKLIN*      CLOUDY    50  47  89 SE5       29.85S
NEW CASTLE     CLOUDY    53  51  93 CALM      29.85S
BEAVER COUNTY  CLOUDY    52  48  87 CALM      29.84F
BUTLER*        CLOUDY    52  48  86 CALM      29.85R
PITTSBURGH INT PTSUNNY   53  50  89 E3        29.83S
PITTSBURGH     CLOUDY    52  51  97 CALM      29.82F
INDIANA*       CLOUDY    52  50  93 SE5       29.87F
LATROBE        PTSUNNY   52  50  93 CALM      29.84S
WASHINGTON CO* CLOUDY    53  50  89 NE3       29.85F
$$

PAZ004>006-010>012-017>019-024>028-033>037-041-042-045-046-049>053-251400-
CENTRAL PENNSYLVANIA

CITY           SKY/WX    TMP DP  RH WIND       PRES   REMARKS
BRADFORD       CLOUDY    49  46  90 SE7       29.85F
DUBOIS         CLOUDY    49  48  97 E5        29.84F
CLEARFIELD     CLOUDY    49  49 100 NE6       29.85F FOG
JOHNSTOWN      CLOUDY    48  46  93 SE3       29.82F FOG
ALTOONA        CLOUDY    51  48  89 N6        29.84F FOG
STATE COLLEGE  CLOUDY    48  48 100 NE6       29.85F FOG
WILLIAMSPORT   LGT RAIN  52  50  93 CALM      29.85F
SELINSGROVE    CLOUDY    53  51  93 N5        29.85F
FT INDIANTOWN  LGT RAIN  54  54  99 CALM      29.84F FOG
CAPITAL CITY   LGT RAIN  56  32  40 E5        29.83F
HARRISBURG     LGT RAIN  55  53  93 NE3       29.82F FOG
YORK           CLOUDY    55  54  96 NE5       29.81F FOG
$$

PAZ038>040-043-044-047-048-054-055-060>062-067>071-251400-
EASTERN PENNSYLVANIA

CITY           SKY/WX    TMP DP  RH WIND       PRES   REMARKS
SCRANTON       HVY RAIN  52  50  93 VRB3      29.86F FOG
MOUNT POCONO   LGT RAIN  48  48 100 E8G16     29.87F FOG
ALLENTOWN      CLOUDY    56  53  90 E12       29.85F FOG
QUAKERTOWN*    CLOUDY    55  55 100 E6        29.85F FOG
READING        LGT RAIN  56  56 100 N5        29.83F FOG
LANCASTER      LGT RAIN  56  55  97 NE8       29.82F FOG
COATESVILLE    FOG       55  55 100 E9        29.84S VSB 1/4
POTTSTOWN      CLOUDY    54  54 100 E6        29.85F FOG
BLUE BELL      CLOUDY    54  54 100 E7        29.85F VSB 1
DOYLESTOWN     CLOUDY    54  54 100 VRB3      29.84F FOG
WILLOW GROVE   NOT AVBL
NORTH PHILA    CLOUDY    59  56  89 E8        29.85F FOG
PHILADELPHIA   DRIZZLE   57  56  96 E7        29.82F FOG
$$



USA.gov is the U.S. government's official web portal to all federal, state and local government web resources and services.